Location: Kolin
(50.0330°N, 15.2000°E)
Time: 11:21:51
(UTC+02:00)

ISS - Pass Details

Date: 23 May 2021
Orbit: 417 x 422 km, 51.6° (Epoch: 13 June)

Event Time Altitude Azimuth Distance (km) Brightness Sun altitude
Rises 00:34:22 0° 287° (WNW) 2,370 0.4 -19.2°
Reaches altitude 10° 00:36:33 10° 279° (W) 1,504 -0.8 -19.3°
Enters shadow 00:38:20 25° 259° (W) 886 -2.2 -19.3°
